Simultaneous Nadir Overpasses (SNOs) Predictions

Prediction of SNOs between GOES-15 and LANDSAT-8 Satellite Orbit:

Table of predicted SNOs for the next 14.0 days since TLE Epoch: 9/14/2024
Index Date Time (GOES-15) GOES-15 Lat,Lon LANDSAT-8 Lat,Lon Distance(km) Time Diff (sec)
1 09/14/2024 18:02:16 0.30, 61.43 0.54, 62.73 146.69 80
2 09/15/2024 06:20:53 -0.31, 61.31 0.48, 57.56 426.99 80
3 09/16/2024 17:50:06 0.29, 61.42 1.23, 65.67 484.09 80
4 09/17/2024 06:08:42 -0.31, 61.30 -0.17, 60.51 89.36 80
5 09/19/2024 05:59:09 -0.31, 61.29 -0.75, 63.48 248.52 80
6 09/19/2024 18:20:33 0.33, 61.41 -0.34, 58.29 354.16 80
7 09/21/2024 18:05:39 0.32, 61.41 0.27, 61.27 16.59 80
8 09/23/2024 17:56:05 0.31, 61.41 0.94, 64.23 321.23 80
9 09/24/2024 06:14:40 -0.32, 61.30 0.13, 59.07 253.07 80
10 09/26/2024 06:05:04 -0.32, 61.31 -0.50, 62.05 84.79 80
